This is the latest recevied weather packets stored in our database for station/object K5OLV. If no packets are shown the sender has not sent any weather packets the latest 10 day(s).
| Time | Temp. | Humidity | Pressure | Rain* | Wind** | Luminosity | Snow |
|---|---|---|---|---|---|---|---|
| 1777565983 | 14.44° C | 73% | 1011.3 hPa | 0 mm | - | 575 W/m² | - |
| 1777565677 | 14.44° C | 71% | 1011.6 hPa | 0 mm | - | 539 W/m² | - |
| 1777565375 | 13.89° C | 73% | 1011.7 hPa | 0 mm | - | 617 W/m² | - |
| 1777565070 | 13.89° C | 71% | 1011.4 hPa | 0 mm | - | 585 W/m² | - |
| 1777564766 | 13.89° C | 73% | 1011.5 hPa | 0 mm | - | 681 W/m² | - |
| 1777564462 | 13.89° C | 75% | 1011.5 hPa | 0 mm | - | 780 W/m² | - |
| 1777564157 | 13.89° C | 75% | 1011.4 hPa | 0 mm | - | 774 W/m² | - |
| 1777563854 | 13.89° C | 75% | 1011.5 hPa | 0 mm | - | 698 W/m² | - |
| 1777563550 | 13.89° C | 78% | 1011.5 hPa | 0 mm | - | 599 W/m² | - |
| 1777563250 | 13.89° C | 80% | 1011.5 hPa | 0 mm | - | 645 W/m² | - |
| 1777562947 | 13.33° C | 80% | 1011.5 hPa | 0 mm | - | 727 W/m² | - |
| 1777562642 | 13.33° C | 79% | 1011.2 hPa | 0 mm | - | 691 W/m² | - |
| 1777562342 | 12.78° C | 80% | 1011.3 hPa | 0 mm | - | 786 W/m² | - |
| 1777562038 | 12.78° C | 80% | 1011.4 hPa | 0 mm | - | 695 W/m² | - |
| 1777561735 | 12.78° C | 84% | 1011.5 hPa | 0 mm | - | 596 W/m² | - |
| 1777561431 | 12.78° C | 83% | 1011.3 hPa | 0 mm | - | 767 W/m² | - |
| 1777561126 | 12.78° C | 84% | 1011.5 hPa | 0 mm | - | 724 W/m² | - |
| 1777560821 | 12.78° C | 84% | 1011.2 hPa | 0 mm | - | 614 W/m² | - |
| 1777560519 | 12.22° C | 86% | 1011.2 hPa | 0 mm | - | 619 W/m² | - |
| 1777560217 | 12.22° C | 87% | 1011.2 hPa | 0 mm | - | 656 W/m² | - |
| 1777559913 | 12.22° C | 86% | 1011.3 hPa | 0 mm | - | 312 W/m² | - |
| 1777559608 | 12.22° C | 87% | 1011.4 hPa | 0 mm | - | 548 W/m² | - |
| 1777559307 | 11.67° C | 87% | 1011.2 hPa | 0 mm | - | 440 W/m² | - |
| 1777559002 | 12.22° C | 88% | 1011.1 hPa | 0 mm | - | 573 W/m² | - |
| 1777558698 | 11.67° C | 89% | 1011.2 hPa | 0 mm | - | 589 W/m² | - |
* Rain latest hour (hover to see other rain measurements)
** Current wind speed in m/s (hover to see current wind gust speed)